TimePDT,TemperatureF,Dew PointF,Humidity,Sea Level PressureIn,VisibilityMPH,Wind Direction,Wind SpeedMPH,Gust SpeedMPH,PrecipitationIn,Events,Conditions,WindDirDegrees,DateUTC
12:54 AM,41.0,39.0,93,29.88,10.0,SW,8.1,-,N/A,,Overcast,230,2012-10-21 07:54:00
1:54 AM,42.1,39.0,89,29.88,10.0,SW,6.9,-,0.00,Rain,Light Rain,230,2012-10-21 08:54:00
2:54 AM,41.0,39.0,93,29.88,9.0,West,5.8,-,0.00,Rain,Light Rain,270,2012-10-21 09:54:00
3:04 AM,41.0,39.2,93,29.87,8.0,West,5.8,-,0.01,Rain,Light Rain,270,2012-10-21 10:04:00
3:54 AM,41.0,39.0,93,29.88,3.0,WSW,6.9,-,0.15,Rain,Rain,240,2012-10-21 10:54:00
4:19 AM,39.2,39.2,100,29.85,10.0,SSE,4.6,-,0.03,Rain,Light Rain,160,2012-10-21 11:19:00
4:34 AM,39.2,39.2,100,29.86,10.0,WSW,3.5,-,0.04,,Overcast,250,2012-10-21 11:34:00
4:46 AM,39.2,39.2,100,29.86,10.0,SW,4.6,-,0.04,,Overcast,230,2012-10-21 11:46:00
4:54 AM,39.9,39.0,97,29.86,10.0,SW,4.6,-,0.04,,Overcast,220,2012-10-21 11:54:00
5:54 AM,39.0,37.9,96,29.87,10.0,SW,5.8,-,N/A,,Scattered Clouds,230,2012-10-21 12:54:00
6:54 AM,37.9,37.9,100,29.88,9.0,SSW,5.8,-,N/A,,Clear,210,2012-10-21 13:54:00
7:06 AM,35.6,35.6,100,29.87,1.5,SSW,4.6,-,N/A,,Clear,200,2012-10-21 14:06:00
7:10 AM,35.6,35.6,100,29.87,0.8,WSW,3.5,-,N/A,,Clear,240,2012-10-21 14:10:00
7:17 AM,37.4,37.4,100,29.88,1.5,WSW,4.6,-,N/A,,Clear,250,2012-10-21 14:17:00
7:20 AM,37.4,37.4,100,29.88,4.0,WSW,4.6,-,N/A,,Clear,250,2012-10-21 14:20:00
7:37 AM,39.2,37.4,93,29.88,10.0,WSW,3.5,-,N/A,,Mostly Cloudy,250,2012-10-21 14:37:00
7:54 AM,39.0,37.9,96,29.89,10.0,SW,4.6,-,N/A,,Mostly Cloudy,230,2012-10-21 14:54:00
8:54 AM,39.9,39.0,97,29.89,8.0,SSW,6.9,-,0.00,Rain,Light Rain,210,2012-10-21 15:54:00
9:54 AM,42.1,39.9,92,29.89,10.0,WSW,4.6,-,0.00,,Scattered Clouds,240,2012-10-21 16:54:00
10:54 AM,45.0,42.1,90,29.88,10.0,SSW,6.9,-,N/A,,Mostly Cloudy,200,2012-10-21 17:54:00
11:54 AM,46.9,42.1,83,29.88,10.0,SSW,8.1,-,N/A,,Mostly Cloudy,200,2012-10-21 18:54:00
12:54 PM,48.9,41.0,74,29.87,10.0,South,11.5,-,N/A,,Mostly Cloudy,190,2012-10-21 19:54:00
1:54 PM,50.0,42.1,74,29.86,10.0,SSW,10.4,-,N/A,,Mostly Cloudy,210,2012-10-21 20:54:00
2:54 PM,50.0,39.9,68,29.84,10.0,SW,4.6,-,0.00,,Mostly Cloudy,230,2012-10-21 21:54:00
3:54 PM,51.1,37.9,61,29.83,10.0,SW,5.8,-,N/A,,Mostly Cloudy,230,2012-10-21 22:54:00
4:54 PM,45.0,37.9,76,29.85,10.0,NW,4.6,-,N/A,,Mostly Cloudy,320,2012-10-21 23:54:00
5:54 PM,43.0,37.9,82,29.84,10.0,Calm,Calm,-,N/A,,Mostly Cloudy,0,2012-10-22 00:54:00
6:54 PM,39.9,37.0,89,29.83,10.0,Calm,Calm,-,N/A,,Mostly Cloudy,0,2012-10-22 01:54:00
7:54 PM,37.0,36.0,96,29.83,10.0,Calm,Calm,-,N/A,,Partly Cloudy,0,2012-10-22 02:54:00
8:54 PM,37.9,37.0,97,29.82,9.0,Calm,Calm,-,N/A,,Partly Cloudy,0,2012-10-22 03:54:00
9:54 PM,37.9,37.0,97,29.81,9.0,Calm,Calm,-,N/A,,Clear,0,2012-10-22 04:54:00
10:54 PM,37.0,36.0,96,29.78,5.0,North,3.5,-,N/A,,Partly Cloudy,10,2012-10-22 05:54:00
11:54 PM,37.0,37.0,100,29.77,6.0,NNE,3.5,-,N/A,,Mostly Cloudy,20,2012-10-22 06:54:00